Tracking 29487 objects as of 12-Sep-2024
HD Live streaming from Space Station
objects crossing your sky now

FENGYUN 1C DEB

Track FENGYUN 1C DEB now!
10-day predictions


NORAD ID: 36188
Int'l Code: 1999-025DTM
Perigee: 706.2 km
Apogee: 795.9 km
Inclination: 98.6 °
Period: 99.7 minutes
Semi major axis: 7122 km
RCS: 0.0031 m2 (small)
Launch date: May 10, 1999
Source: People's Republic of China (PRC)
Launch site: Taiyaun Space Center, China (TSC)

Note: This is SATELLITE DEBRIS
Your satellite tracking list
Your tracking list is empty




NASA's NSSDC Master Catalog

Two Line Element Set (TLE):
1 36188U 99025DTM 24254.18075516  .00028035  00000-0  79186-2 0  9992
2 36188  98.5985 337.0491 0062930 265.6572  93.7426 14.44423034813903
Source of the keplerian elements: AFSPC